Regional Weather Roundup
Issued by NWS Grand Forks, ND

Home | Current Version | Previous Version | Graphics & Text | Print | Product List | Glossary On
Versions: 1 2 3 4 5 6 7 8 9 10 11 12 13 14 15 16 17 18 19 20 21 22 23 24 25 26 27 28 29 30 31 32 33 34 35 36 37 38 39 40 41 42 43 44 45 46 47 48 49 50
000
ASUS43 KFGF 271410
RWRFGF
PRAIRIE TO PINES  WEATHER ROUNDUP
NATIONAL WEATHER SERVICE EASTERN NORTH DAKOTA/GRAND FORKS ND
900 AM CDT FRI MAR 27 2015

 **SATELLITE DATA USED TO AUGMENT SKY COVER AT AUTOMATED STATIONS**
 *****  WEATHER ACROSS EASTERN NORTH DAKOTA  *****

CITY           SKY/WX    TMP DP  RH WIND       PRES   REMARKS
GRAND FORKS    CLOUDY    21  15  78 S8        30.23F WCI  11
GRAND FRKS AFB PTSUNNY   22  15  73 S8        30.22S WCI  13
GRAND FRKS NWS   N/A     21 N/A N/A S6          N/A  WCI  14
DEVILS LAKE    CLOUDY    25  16  68 S15       30.12F WCI  12
FARGO          MOSUNNY   20  13  74 S7        30.26S WCI  11
WAHPETON ARPT  MOSUNNY   19  12  73 S3        30.27F
$$

 ***** WEATHER ACROSS CENTRAL AND WESTERN NORTH DAKOTA  *****

CITY           SKY/WX    TMP DP  RH WIND       PRES   REMARKS
BISMARCK       LGT SNOW  25  19  78 S17       30.10F WCI  12
MINOT          LGT SNOW  28  25  88 S14       30.00F FOG     WCI  17
JAMESTOWN      CLOUDY    24  16  71 S12       30.15F WCI  13
MINOT AFB      LGT SNOW  29  28  99 S15       29.98F FOG     WCI  17
GARRISON         N/A     27  24  89 S14       30.02F WCI  16
WILLISTON      CLOUDY    36  31  82 S6        29.93F
DICKINSON      PTSUNNY   33  29  85 S15       29.94F WCI  23
HETTINGER      CLOUDY    32  28  85 S10       30.00F WCI  24
$$

 *****  OTHER AIRPORT OBSERVATIONS IN OUR AREA  *****

CITY           SKY/WX    TMP DP  RH WIND       PRES   REMARKS
WALHALLA       NOT AVBL
GRAFTON AIRPOR NOT AVBL
VALLEY CITY AR FAIR      19  19 100 S7        30.19F WCI  10
CANDO          NOT AVBL
CAVALIER APRT  FAIR      25  16  68 S13       30.19F WCI  13
GWINNER        SUNNY     27  19  74 S12         N/A  WCI  16
SHEYENNE NWR     N/A     20  17  86 SW3       29.95
ROLLA          CLOUDY    23  19  86 S16       30.05F WCI  10
 ***** THE ABOVE OBSERVATIONS ARE NON NWS ARE NOT QUALITY
       CONTROLLED AND MAY MIS-REPORT RAIN FOR SNOW...
$$

  *****  WEATHER ACROSS NORTHERN MINNESOTA  *****

CITY           SKY/WX    TMP DP  RH WIND       PRES   REMARKS
FLAG ISLAND    SUNNY     10   3  72 SE6       30.23S WCI   1
WARROAD        MOSUNNY   19  10  68 S7        30.23S WCI  10
ROSEAU         MOSUNNY   21  12  68 S10       30.23S WCI  10
HALLOCK        MOSUNNY   19  12  73 S8        30.22S WCI   9
THF RVR FALLS  SUNNY     21   9  58 S12       30.23S WCI   9
BAUDETTE       SUNNY     17   8  67 S8        30.23S WCI   7
WASKISH        SUNNY     18   7  62 S6        30.24S WCI   9
CROOKSTON      PTSUNNY   19  12  73 S9        30.25S WCI   9
STEPHEN NDAWN    N/A     19  12  73 S9          N/A  WCI   9
GREENBUSH NDAW   N/A     19  12  73 S10         N/A  WCI   8
$$
  *****  WEATHER ACROSS CENTRAL AND WEST MINNESOTA  *****

CITY           SKY/WX    TMP DP  RH WIND       PRES   REMARKS
FOSSTON        SUNNY     18   9  68 S8        30.23F WCI   7
BEMIDJI        SUNNY     16   7  69 S3        30.23R
PARK RAPIDS    SUNNY     17   5  59 SE5       30.23S WCI  10
ELBOW LAKE     FAIR      19  10  69 SE5       30.25F WCI  12
WADENA         SUNNY     16   7  67 E5        30.23F WCI   9
DETROIT LAKES  SUNNY     18  14  86 CALM      30.24S
MOORHEAD       MOSUNNY   18  16  93 S5        30.27S WCI  11
FERGUS FALLS   SUNNY     19   7  58 S6        30.29F WCI  11
MORRIS MN      SUNNY     19  14  79 CALM      30.26S
STAPLES        SUNNY     16   3  57 SE5       30.25S WCI   9
$$
  *****  WEATHER ELSEWHERE ACROSS MINNESOTA  *****

CITY           SKY/WX    TMP DP  RH WIND       PRES   REMARKS
DULUTH         MOSUNNY   18   5  57 CALM      30.23F
INTRNTL FALLS  SUNNY     13   7  77 SE3       30.25S
ELY            SUNNY     10   3  72 CALM      30.24S
CLOQUET        SUNNY     18   3  53 CALM      30.24F
WHEATON        MOSUNNY   19  12  73 CALM      30.28F
BRAINERD       SUNNY     18   5  57 SE6       30.26F WCI  10
HIBBING        SUNNY     16   6  65 E3        30.25S
ALEXANDRIA     SUNNY     20   7  57 SE5       30.24F WCI  13
SAINT CLOUD    SUNNY     20   4  50 E7        30.28S WCI  11
MINNEAPOLIS    SUNNY     23   5  46 NE5       30.28F WCI  17
$$

  *****  WEATHER ACROSS SOUTH DAKOTA  *****

CITY           SKY/WX    TMP DP  RH WIND       PRES   REMARKS
SIOUX FALLS    CLOUDY    22  14  71 N3        30.27S
BROOKINGS      NOT AVBL
WATERTOWN      PTSUNNY   20  15  81 SW3       30.22S
HURON          PTSUNNY   22  14  71 S7        30.26F WCI  13
SISSETON         N/A     22  14  71 S5        30.25F WCI  16
ABERDEEN       CLOUDY    23  16  74 S8        30.23F WCI  14
MITCHELL       MOSUNNY   22  18  85 CALM      30.28F
PIERRE         CLOUDY    27  19  72 SE14      30.14F WCI  16
MOBRIDGE       CLOUDY    28  16  60 S17       30.11S WCI  16
RAPID CITY     PTSUNNY   34  30  85 SE3       30.03F
$$

  *****  SOME WEATHER IN NEARBY STATES *****

CITY           SKY/WX    TMP DP  RH WIND       PRES   REMARKS
GLASGOW MT     PTCLDY    37  32  82 NW7       29.96R
GREAT FALLS MT PTCLDY    44  33  65 S10       30.05F
CHEYENNE WY    PTSUNNY   45  28  51 NW13G22   30.18R
SCOTTSBLUFF NE CLOUDY    39  37  92 NW6       30.14S
OMAHA NE       MOSUNNY   27  21  78 N9        30.31S WCI  18
DES MOINES IA  SUNNY     29  17  61 N9        30.27R WCI  20
DAVENPORT IA   SUNNY     26  10  50 N20       30.23R WCI  12
CHICAGO IL     MOSUNNY   22   8  55 N16       30.15S WCI   8
EAU CLAIRE WI  SUNNY     22   8  55 N8        30.26S WCI  12
LA CROSSE WI   SUNNY     25  10  53 NE9       30.27R WCI  15
$$

  *****  SOME NATIONAL WEATHER *****

CITY           SKY/WX    TMP DP  RH WIND       PRES   REMARKS
LA GUARDIA NY  LGT RAIN  41  35  79 N10       29.76R
RALEIGH NC     LGT RAIN  47  43  86 NE7       29.76R FOG
ATLANTA GA     CLOUDY    46  39  76 NW18G29   29.82R
NEW ORLEANS LA PTSUNNY   54  44  69 N15       30.06R
OKLAHOMA CITY  PTSUNNY   45  34  65 N18       30.16R
ALBUQUERQUE NM MOSUNNY   43  21  41 SE3       30.32R
SALT LAKE CITY CLEAR     42  31  64 SE7       30.32R
LOS ANGELES CA PTCLDY    62  44  51 E6        30.05R
BOISE ID       CLEAR     45  38  76 SE6       30.22F
SEATTLE WA     MOCLDY    49  46  90 S3        30.04S
$$

*** WEATHER ACROSS MANITOBA...SASKATCHEWAN AND ONTARIO ***
                ***ONTARIO***

CITY           SKY/WX    TMP DP  RH WIND       PRES   REMARKS
GERALDTON      MOSUNNY    1  -8  66 W6        30.23S WCI -10
THUNDER BAY    SUNNY     10   0  61 W3        30.33R
SIOUX LOOKOUT  SUNNY      5   0  78 S5        30.23S WCI  -4
TORONTO        CLOUDY    25  18  74 N15       29.89R WCI  12
BIG TROUT LK   SUNNY      5  -6  61 W7        30.16F WCI  -7
PICKLE LAKE    SUNNY      5  -6  61 W7        30.19F WCI  -7
DRYDEN         SUNNY      9   3  78 S5        30.22S WCI   0
KENORA         MOSUNNY   14   3  62 SW6       30.22R WCI   5
$$
                *** MANITOBA***

CITY           SKY/WX    TMP DP  RH WIND       PRES   REMARKS
BRANDON        LGT SNOW  25  23  93 SE12      30.05S VSB 1   WCI  14
DAUPHIN        SNOW      25  23  93 E5        30.02F VSB 3/8 WCI  19
ISLAND LAKE    SUNNY      1  -6  71 S3        30.16F
PILOT MOUND      N/A     25  19  80 S17         N/A  WCI  11
THE PAS        PTSUNNY   21  18  86 SE6       30.01F WCI  14
THOMPSON       MOSUNNY    9  -2  61 S3        30.07F
WINNIPEG       CLOUDY    19   7  58 S12       30.20F WCI   7
LYNN LAKE      SUNNY     10   7  85 CALM      29.99S
CHURCHILL      SUNNY      7  -6  56 W6        29.98F WCI  -3
GILLAM         SUNNY      9  -4  56 SW6       30.08S WCI  -1
$$
                ***SASKATCHEWAN***

CITY           SKY/WX    TMP DP  RH WIND       PRES   REMARKS
ESTEVAN        NOT AVBL
KINDERSLEY     PTCLDY    36  32  87 S6        29.90S
LLOYDMINSTER   MOCLDY    36  32  87 W6        29.89R
PRINCE ALBERT  CLOUDY    32  32 100 VRB2      29.88R FOG
REGINA         CLOUDY    34  32  93 S3        29.89F
YORKTON        LGT SNOW  27  27 100 SE12      29.90F WCI  16
N. BATTLEFORD  CLOUDY    36  34  93 W5        29.91R
LA RONGE       FLURRIES  28  27  93 NE6       29.93R WCI  22
SASKATOON      MOCLDY    36  34  93 SW6       29.89S
SWIFT CURRENT  CLEAR     39  36  87 W12       29.93R
$$
NOTE: THESE ARE AUTOMATED STATIONS WITH LIMITED QUALITY CONTROL
      "FAIR" INDICATES FEW OR NO CLOUDS BELOW 12,000 FEET WITH NO
      SIGNIFICANT WEATHER AND/OR OBSTRUCTIONS TO VISIBILITY.
      SKY/WX - SKY CONDITION AND SIGNIFICANT WEATHER.
      TMP - AIR TEMPERATURE.    DP   - DEWPOINT TEMPERATURE.
      RH  - RELATIVE HUMIDITY.  PRES - PRESSURE.
      HX  - HEAT INDEX.         WCI  - WIND CHILL INDEX.
$



USA.gov is the U.S. government's official web portal to all federal, state and local government web resources and services.